User: anonymous   Login
Location: Morlupo
(42.1333°N, 12.5000°E)
Time: 02:31:38
(UTC+00:00)
Language:

Cosmos 1048 Rocket - Orbit

View from above orbital plane
View from above orbital plane
View from above satellite
View from above satellite

Ground track
Ground track

The orbit data is extracted from the following two-line orbital elements,

1 11112U 78105B   20338.44825199  .00000100  00000-0  42044-4 0  9994
2 11112  74.0315 358.2371 0034366 208.5929 151.3341 14.37282586201528
Epoch (UTC): 03 December 2020 10:45:28
Eccentricity: 0.0034366
inclination: 74.0315°
perigee height: 743 km
apogee height: 792 km
right ascension of ascending node: 358.2371°
argument of perigee: 208.5929°
revolutions per day: 14.37282586
mean anomaly at epoch: 151.3341°
orbit number at epoch: 20152

The dashed part of the orbit path shows where the satellite is in the earth's shadow,  

DLR